{"data":{"norad_id":59541,"intl_designator":"2024-074H","name":"STARLINK-31481","alt_names":[],"object_type":"PAYLOAD","status":"ACTIVE","operator":null,"country":"US","launch_date":"2024-04-18","launch_site_code":"AFETR","launch_vehicle":null,"mission":null,"orbit_class":"UNKNOWN","rcs_meters":null,"size_class":null,"mass_kg":null,"dimensions":null,"purposes":["comms"],"wikipedia_slug":null,"has_3d_model":false,"image_url":null,"decayed_at":null,"tle_current":{"epoch":"2026-09-21T14:44:52.646208Z","epoch_age_seconds":71923,"freshness":"FRESH","line1":"1 59541U 24074H   26264.61449822  .00000695  00000+0  34768-4 0  9998","line2":"2 59541  43.0031 316.6016 0001373 243.6792 116.3919 15.27578204135984","mean_motion":15.27578204,"eccentricity":0.0001373,"inclination_deg":43.0031,"raan_deg":316.6016,"arg_perigee_deg":243.6792,"mean_anomaly_deg":116.3919,"bstar":3.4768e-5,"rev_number":13598,"period_min":94.266859544691,"perigee_km":482.11243232566,"apogee_km":483.9965155044,"semimajor_km":6861.191473915,"source":"CELESTRAK","updated_at":"2026-09-22T09:00:48.972182Z"}}}